Location: Domont
(49.0278°N, 2.3264°E)
Time: 12:48:39
(UTC+00:00)

Cosmos 1626 Rocket - Visible Passes

Search period start: 29 May 2022 00:00
Search period end: 08 June 2022 00:00
Orbit: 602 x 631 km, 82.5° (Epoch: 28 May)

Date Brightness Start Highest point End Pass type
(mag) Time Alt. Az. Time Alt. Az. Time Alt. Az.
29 May 4.6 03:03:52 10° SSE 03:08:04 46° E 03:12:14 10° NNE visible
31 May 6.1 02:01:08 10° ESE 02:03:48 16° E 02:06:28 10° NE visible
01 Jun 5.5 02:16:29 10° SE 02:20:07 26° E 02:23:47 10° NNE visible
02 Jun 4.5 02:32:22 10° SSE 02:36:33 45° E 02:40:41 10° NNE visible
03 Jun 3.7 02:48:40 10° S 02:53:02 80° E 02:57:24 10° NNE visible
04 Jun 6.1 01:29:42 10° ESE 01:32:16 16° E 01:34:52 10° NE visible
04 Jun 3.7 03:05:18 10° SSW 03:09:37 59° WNW 03:13:55 10° N visible
05 Jun 5.4 01:44:59 10° SE 01:48:36 26° E 01:52:12 10° NNE visible
06 Jun 4.5 02:00:52 10° SSE 02:05:00 44° E 02:09:08 10° NNE visible
07 Jun 3.6 02:17:21 11° S 02:21:29 78° E 02:25:50 10° NNE visible
